{"data":{"norad_id":61904,"intl_designator":"2024-205L","name":"2024-205L","alt_names":[],"object_type":"PAYLOAD","status":"ACTIVE","operator":null,"country":"PRC","launch_date":"2024-11-11","launch_site_code":"JSC","launch_vehicle":null,"mission":null,"orbit_class":"UNKNOWN","rcs_meters":null,"size_class":null,"mass_kg":null,"dimensions":null,"purposes":[],"wikipedia_slug":null,"has_3d_model":false,"image_url":null,"decayed_at":null,"tle_current":{"epoch":"2026-05-25T04:48:25.825824Z","epoch_age_seconds":57761,"freshness":"FRESH","line1":"1 61904U 24205L   26145.20029891  .00008721  00000+0  54416-3 0  9992","line2":"2 61904  97.4138 216.4637 0069650  85.2836 275.6342 15.07696351 84735","mean_motion":15.07696351,"eccentricity":0.006965,"inclination_deg":97.4138,"raan_deg":216.4637,"arg_perigee_deg":85.2836,"mean_anomaly_deg":275.6342,"bstar":0.00054416,"rev_number":8473,"period_min":95.509947944419,"perigee_km":495.03387623324,"apogee_km":591.44867561688,"semimajor_km":6921.3782759251,"source":"CELESTRAK","updated_at":"2026-05-25T13:38:02.626832Z"}}}